Find Local Weather

World > North America > United States > Massachusetts

Boston, Massachusetts Regional Weather

Lat: 42.32N, Lon: 71.07W
Wx Zone: MAZ015
Feedback
Expires:201804240600;;411364
ASUS41 KOKX 240505
RWROKX

Regional Weather Roundup
National Weather Service New York NY
100 AM EDT TUE APR 24 2018

Note: "FAIR" indicates few or no clouds below 12,000 feet with no
significant weather and/or obstructions to visibility.


CTZ002-004>006-009-010-012-RIZ004-006-007-MAZ004-011-015-240600-
Southern New England

 In CT
  
CITY           SKY/WX    TMP DP  RH WIND       PRES   REMARKS
Bradley Intl   MOCLDY    44  29  55 S8        30.42F                  
Hartford       FAIR      44  32  62 S5        30.44S                  
Danbury        FAIR      38  31  76 CALM      30.43F                  
Wtrbury/Oxford FAIR      42  33  70 S3        30.43F                  
Norwalk Harbor   N/A     43 N/A N/A NE2         N/A                   
Bridgeport     FAIR      44  38  79 CALM      30.44F                  
Meriden        FAIR      39  33  79 CALM      30.45S                  
New Haven      FAIR      39  35  86 CALM      30.44F                  
Chester        FAIR      43  36  75 SW3       30.44S                  
Groton         FAIR      37  37 100 CALM      30.45F                  
Willimantic    FAIR      37  29  72 CALM      30.45S                  

 In RI
  
CITY           SKY/WX    TMP DP  RH WIND       PRES   REMARKS
Providence     FAIR      42  34  73 CALM      30.45F                  
Block Island     N/A     43  39  86 S8        30.45F                  
Westerly       FAIR      37  35  92 CALM      30.46F                  
 
In MA
  
CITY           SKY/WX    TMP DP  RH WIND       PRES   REMARKS
Boston         FAIR      47  23  38 SW13      30.43F                  
Worcester      FAIR      42  24  49 SW13      30.40F                  
Westfield      FAIR      43  25  49 S3        30.41F                  
Provincetown   FAIR      42  37  82 S10       30.46S                  
Nantucket      FAIR      37  37 100 SW6       30.47S WCI  32          
$$


SKY/WX - Weather  TMP - Temperature  DP - Dewpoint  RH - Relative Humidity
WIND - Wind Direction/Speed PRES - Barometric Pressure